Flag for U.S.A. Weather past 2 weeks in Dickinson, North Dakota, U.S.A.

Now
50 °F

Sunny.


Feels Like: 45 °F
Forecast: 35 / 57 °F
Wind: 13 mph from West

Location: Dickinson Municipal Airport

Current Time: Jan 27, 2015 at 10:19:01 AM

Latest Report: Jan 27, 2015 at 9:56 AM


Visibility: 10 mi

Pressure: 29.88 "Hg

Humidity: 54%

Dew point: 34 °F

Location of DickinsonLocation

Historic Weather in Dickinson — Graph

°F

Dickinson temperature yesterday

Maximum temperature yesterday: 52 °F (at 2:56 PM)
Minimum temperature yesterday: 32 °F (at 11:56 PM)
Average temperature yesterday: 40 °F

Past Weeks' High & Low Weather Summary

 TemperatureHumidityPressure
High52 °F (Jan 26, 2:56 PM)92% (Jan 20, 3:04 AM)30.77 "Hg (Jan 20, 3:04 AM)
Low-9 °F (Jan 12, 8:56 AM)41% (Jan 26, 2:56 PM)29.58 "Hg (Jan 16, 8:56 PM)
Average31 °F71%30.02 "Hg
* Reported Jan 12 8:56 AM — Jan 27 8:56 AM, Dickinson, Weather by CustomWeather, © 2014

Note: Actual official high and low records may vary slightly from our data, if they occured in-between our weather recording intervals... More about our weather records

Advertising

Dickinson weather history for previous 24 hours

 ConditionsComfort  
Time TempWeatherWind HumidityBarometerVisibility
8:56 AM
Jan 27
44 °FSunny.8 mph65%29.89 "Hg10 mi
7:56 AM38 °FSunny.8 mph73%29.89 "Hg10 mi
6:56 AM39 °FSunny.7 mph70%29.89 "Hg10 mi
5:56 AM36 °FClear.7 mph75%29.88 "Hg10 mi
4:56 AM37 °FClear.7 mph76%29.88 "Hg10 mi
3:56 AM33 °FClear.6 mph82%29.87 "Hg10 mi
2:56 AM31 °FClear.6 mph85%29.88 "Hg10 mi
1:56 AM34 °FClear.6 mph82%29.90 "Hg10 mi
12:56 AM33 °FClear.6 mph82%29.90 "Hg10 mi
11:56 PM
Jan 26
32 °FClear.7 mph85%29.92 "Hg10 mi
10:56 PM35 °FClear.6 mph82%29.93 "Hg10 mi
9:56 PM36 °FClear.10 mph82%29.94 "Hg10 mi
8:56 PM34 °FClear.8 mph85%29.96 "Hg10 mi
7:56 PM35 °FClear.7 mph78%29.96 "Hg10 mi
6:56 PM34 °FClear.7 mph82%29.97 "Hg10 mi
5:56 PM41 °FClear.6 mph70%29.96 "Hg10 mi
4:56 PM40 °FClear.6 mph68%29.97 "Hg10 mi
3:56 PM50 °FClear.7 mph52%29.96 "Hg10 mi
2:56 PM52 °FSunny.6 mph41%29.97 "Hg10 mi
1:56 PM51 °FSunny.7 mph46%29.97 "Hg10 mi
12:56 PM50 °FSunny.10 mph50%29.99 "Hg10 mi
11:56 AM49 °FSunny.10 mph52%29.99 "Hg10 mi
10:56 AM47 °FSunny.14 mph59%30.01 "Hg10 mi
Weather by CustomWeather, © 2014

See weather overviewHow to use our weather pages